Content
SEND FEEDBACK

Daily
Averages
Monthly
Summary
United States of America

WRIGHTSVILLE BEACH, NORTH CAROLINA


Home > North America > United States > North Carolina
Elevation: 25 feet     Latitude: 34 16N     Longitude: 077 54W

WEATHER
 
SELECT A DAY
Number of Records: 208,565;   Date Range: 1/1/95 - 7/7/14
 
SHARE

PRINT THIS DATA

[ ← Previous Day ]
WEATHER ALMANAC - MAY 6, 2013
[ Next Day → ]
[ °C ]   °F
Weather ElementAverageHighLow
Temperature67.3 °F75.9 °F (2:53 pm)55.9 °F (11:53 pm)
Dewpoint60 °F64.4 °F (11:22 am)54 °F (11:53 pm)
Humidity78.3 %94 % (11:22 am)54 % (2:53 pm)
Barometer29.90 in29.92 in (1:53 am)29.86 in (3:53 pm)
Wind Speed9.1 mph20.7 mph (11:33 am)
Wind Gust26.5 mph (11:33 am)
Weather ElementAverage
Visibility8.5 mi
Wind DirectionSE (135.7 °)

Weather ElementTotal
Precipitation1.77 in
Cooling Degree Days0.9 (Base 65)
Growing Degree Days15.9 (Base 50)
Averaged from 35 records on May 6, 2013
WEATHER CONDITIONS BREAKOUT
WIND DIRECTION BREAKOUT
WEATHER BY HOUR - MAY 6, 2013
[ °C ]   °F
Local TimeTemperatureDewpointHumidityBarometerVisibilityWind DirectionWind SpeedGust SpeedPrecipitationEventsConditions
1:53 AM66.0 °F59.0 °F78 %29.92 in10.0 miESE (120°)8.1 mph0.00 inOvercast
2:53 AM66.9 °F59.0 °F76 %29.91 in10.0 miESE (120°)11.5 mph18.4 mph0.00 inOvercast
3:53 AM66.0 °F61.0 °F84 %29.90 in9.0 miSSE (150°)9.2 mph17.3 mph0.00 inRainLight Rain
4:04 AM66.2 °F60.8 °F83 %29.90 in10.0 miESE (120°)9.2 mph0.00 inRainLight Rain
4:44 AM66.2 °F60.8 °F83 %29.90 in10.0 miESE (120°)10.4 mph0.00 inRainLight Rain
4:53 AM66.0 °F61.0 °F84 %29.89 in10.0 miESE (110°)8.1 mph0.00 inOvercast
5:53 AM66.0 °F60.1 °F81 %29.89 in10.0 miSE (130°)5.8 mphOvercast
6:10 AM66.2 °F60.8 °F83 %29.89 in10.0 miSE (130°)6.9 mphOvercast
6:53 AM66.0 °F60.1 °F81 %29.91 in10.0 miSE (130°)8.1 mphOvercast
7:53 AM68.0 °F59.0 °F73 %29.91 in10.0 miSSE (150°)11.5 mphOvercast
8:04 AM68.0 °F60.8 °F78 %29.91 in10.0 miSE (140°)8.1 mphOvercast
8:25 AM68.0 °F60.8 °F78 %29.92 in10.0 miSE (140°)11.5 mph17.3 mphOvercast
8:53 AM69.1 °F61.0 °F75 %29.91 in10.0 miESE (120°)13.8 mph23.0 mphOvercast
9:53 AM68.0 °F61.0 °F78 %29.91 in10.0 miESE (110°)15.0 mph21.9 mph0.00 inRainLight Rain
10:53 AM66.9 °F63.0 °F87 %29.90 in9.0 miEast (100°)11.5 mph19.6 mph0.02 inRainLight Rain
11:15 AM66.2 °F62.6 °F88 %29.90 in2.0 miSE (130°)8.1 mph17.3 mph0.05 inRainRain
11:22 AM66.2 °F64.4 °F94 %29.90 in1.5 miESE (120°)4.6 mph0.12 inRainHeavy Rain
11:29 AM66.2 °F62.6 °F88 %29.92 in1.2 miSSE (150°)9.2 mph0.18 inRain-ThunderstormHeavy Thunderstorms and Rain
11:33 AM66.2 °F62.6 °F88 %29.92 in0.8 miSE (130°)20.7 mph26.5 mph0.23 inRain-ThunderstormHeavy Thunderstorms and Rain
11:43 AM64.4 °F60.8 °F88 %29.91 in1.5 miSE (130°)9.2 mph25.3 mph0.39 inRain-ThunderstormLight Thunderstorms and Rain
11:46 AM66.2 °F62.6 °F88 %29.90 in3.0 miESE (110°)11.5 mph18.4 mph0.39 inRainLight Rain
11:53 AM66.0 °F63.0 °F90 %29.90 in10.0 miEast (100°)9.2 mph0.39 inOvercast
12:12 PM66.2 °F62.6 °F88 %29.90 in10.0 miSE (130°)11.5 mph0.00 inRainLight Rain
12:53 PM70.0 °F63.0 °F78 %29.90 in10.0 miSE (140°)6.9 mph0.00 inScattered Clouds
1:53 PM72.0 °F63.0 °F73 %29.88 in10.0 miSE (130°)6.9 mphPartly Cloudy
2:53 PM75.9 °F57.9 °F54 %29.88 in10.0 miSW (230°)12.7 mphMostly Cloudy
3:53 PM75.0 °F59.0 °F57 %29.86 in10.0 miSouth (190°)11.5 mph16.1 mphMostly Cloudy
4:53 PM73.9 °F57.9 °F57 %29.86 in10.0 miSW (230°)11.5 mph17.3 mphPartly Cloudy
5:53 PM73.0 °F57.0 °F57 %29.86 in10.0 miSouth (190°)8.1 mphPartly Cloudy
6:53 PM71.1 °F55.9 °F59 %29.87 in10.0 miSSW (200°)9.2 mphPartly Cloudy
7:53 PM66.9 °F55.9 °F68 %29.88 in10.0 miSouth (190°)5.8 mphClear
8:53 PM64.0 °F55.0 °F73 %29.89 in10.0 miSouth (180°)6.9 mphClear
9:53 PM63.0 °F55.9 °F78 %29.91 in10.0 miSouth (180°)5.8 mphClear
10:53 PM62.1 °F55.0 °F78 %29.92 in10.0 miCalmClear
11:53 PM55.9 °F54.0 °F93 %29.92 in10.0 miCalmClear
Hourly data recorded from KILM, located miles away from Wrightsville Beach, North Carolina







STORIES FROM OUR PARTNERS